OK,73,77,698,73,2014-10-01T01:40:00,0,28072025,197274
OK,73,77,698,73,2014-10-01T01:45:00,0,28072468,197274
OK,73,77,698,73,2014-10-01T01:50:00,0,28072917,197274
OK,110,51,698,110,2014-10-01T01:55:00,1,28073364,197274
OK,110,51,698,110,2014-10-01T02:05:00,0,28074130,197274
OK,110,51,698,110,2014-10-01T02:10:00,0,28074579,197274
OK,110,51,698,110,2014-10-01T02:15:00,0,28075019,197274
OK,110,51,698,110,2014-10-01T02:20:00,0,28075468,197274
OK,110,51,698,110,2014-10-01T02:25:00,0,28075917,197274
OK,110,51,698,110,2014-10-01T02:30:00,0,28076300,197274
OK,110,51,698,110,2014-10-01T02:35:00,0,28076749,197274
OK,110,51,698,110,2014-10-01T02:40:00,0,28077198,197274
OK,110,51,698,110,2014-10-01T02:45:00,0,28077647,197274
OK,110,51,698,110,2014-10-01T02:50:00,0,28078050,197274
OK,110,51,698,110,2014-10-01T02:55:00,0,28078499,197274
OK,110,51,698,110,2014-10-01T03:00:00,0,28078944,197274
OK,110,51,698,110,2014-10-01T03:05:00,0,28079392,197274
OK,110,51,698,110,2014-10-01T03:10:00,0,28079835,197274
OK,110,51,698,110,2014-10-01T03:15:00,0,28080284,197274
OK,110,51,698,110,2014-10-01T03:20:00,0,28080618,197274
OK,110,51,698,110,2014-10-01T03:25:00,0,28081067,197274
OK,110,51,698,110,2014-10-01T03:30:00,0,28081516,197274
OK,110,51,698,110,2014-10-01T03:35:00,0,28081963,197274
OK,107,52,698,107,2014-10-01T03:40:00,1,28082412,197274
OK,107,52,698,107,2014-10-01T03:45:00,1,28082845,197274
OK,107,52,698,107,2014-10-01T03:50:00,0,28083277,197274
OK,107,52,698,107,2014-10-01T03:55:00,0,28083726,197274
OK,106,53,698,106,2014-10-01T04:00:00,4,28084175,197274
OK,106,53,698,106,2014-10-01T04:05:00,3,28084616,197274
OK,94,60,698,94,2014-10-01T04:10:00,0,28085041,197274
OK,111,50,698,111,2014-10-01T04:15:00,2,28085490,197274
OK,96,58,698,96,2014-10-01T04:20:00,3,28085935,197274
OK,94,60,698,94,2014-10-01T04:25:00,2,28086384,197274
OK,93,60,698,93,2014-10-01T04:30:00,0,28086826,197274
OK,96,58,698,96,2014-10-01T04:35:00,4,28087275,197274
OK,97,58,698,97,2014-10-01T04:40:00,7,28087720,197274
OK,116,48,698,116,2014-10-01T04:45:00,3,28088169,197274
OK,107,52,698,107,2014-10-01T04:50:00,5,28088593,197274
OK,118,47,698,118,2014-10-01T04:55:00,10,28089042,197274
OK,117,48,698,117,2014-10-01T05:00:00,10,28089472,197274
OK,116,48,698,116,2014-10-01T05:05:00,13,28089921,197274
OK,118,47,698,118,2014-10-01T05:10:00,12,28090370,197274
OK,111,50,698,111,2014-10-01T05:15:00,10,28090714,197274
OK,105,53,698,105,2014-10-01T05:20:00,9,28091163,197274
OK,128,44,698,128,2014-10-01T05:25:00,10,28091612,197274
OK,146,38,698,146,2014-10-01T05:30:00,11,28092029,197274
OK,163,34,698,163,2014-10-01T05:35:00,6,28092478,197274
OK,183,30,698,183,2014-10-01T05:40:00,10,28092922,197274
OK,215,26,698,215,2014-10-01T05:45:00,12,28093363,197274
OK,210,26,698,210,2014-10-01T05:50:00,8,28093794,197274
OK,202,28,698,202,2014-10-01T05:55:00,13,28094243,197274
OK,200,28,698,200,2014-10-01T06:00:00,12,28094654,197274
OK,175,32,698,175,2014-10-01T06:05:00,14,28095099,197274
OK,169,33,698,169,2014-10-01T06:10:00,20,28095546,197274
OK,167,33,698,167,2014-10-01T06:15:00,12,28095995,197274
OK,135,41,698,135,2014-10-01T06:20:00,9,28096408,197274
OK,125,45,698,125,2014-10-01T06:25:00,15,28096857,197274
OK,112,50,698,112,2014-10-01T06:30:00,14,28097291,197274
OK,108,52,698,108,2014-10-01T06:35:00,11,28097740,197274
OK,104,54,698,104,2014-10-01T06:40:00,9,28098189,197274
OK,101,56,698,101,2014-10-01T06:45:00,10,28098626,197274
OK,99,57,698,99,2014-10-01T06:50:00,8,28099070,197274
OK,96,58,698,96,2014-10-01T06:55:00,3,28099518,197274
OK,100,56,698,100,2014-10-01T07:00:00,8,28099861,197274
OK,108,52,698,108,2014-10-01T07:10:00,6,28100617,197274
OK,119,47,698,119,2014-10-01T07:15:00,2,28101065,197274
OK,97,58,698,97,2014-10-01T07:20:00,5,28101437,197274
OK,100,56,698,100,2014-10-01T07:25:00,11,28101886,197274
OK,105,53,698,105,2014-10-01T07:30:00,4,28102322,197274
OK,99,57,698,99,2014-10-01T07:35:00,4,28102771,197274
OK,105,53,698,105,2014-10-01T07:40:00,4,28103198,197274
OK,108,52,698,108,2014-10-01T07:45:00,6,28103645,197274
OK,102,55,698,102,2014-10-01T07:50:00,6,28104090,197274
OK,97,58,698,97,2014-10-01T07:55:00,5,28104535,197274
OK,94,60,698,94,2014-10-01T08:00:00,2,28104976,197274
OK,115,49,698,115,2014-10-01T08:05:00,1,28105421,197274
OK,131,43,698,131,2014-10-01T08:10:00,4,28105861,197274
OK,118,47,698,118,2014-10-01T08:15:00,5,28106310,197274
OK,108,52,698,108,2014-10-01T08:20:00,4,28106747,197274
OK,97,58,698,97,2014-10-01T08:25:00,5,28107153,197274
OK,98,57,698,98,2014-10-01T08:30:00,6,28107585,197274
OK,107,52,698,107,2014-10-01T08:35:00,2,28108034,197274
OK,141,40,698,141,2014-10-01T08:40:00,2,28108473,197274
OK,123,46,698,123,2014-10-01T08:45:00,6,28108922,197274
OK,115,49,698,115,2014-10-01T08:50:00,4,28109350,197274
OK,120,47,698,120,2014-10-01T08:55:00,3,28109795,197274
OK,111,50,698,111,2014-10-01T09:00:00,5,28110142,197274
OK,106,53,698,106,2014-10-01T09:05:00,3,28110591,197274
OK,113,50,698,113,2014-10-01T09:10:00,2,28111014,197274
OK,98,57,698,98,2014-10-01T09:15:00,1,28111463,197274
OK,98,57,698,98,2014-10-01T09:20:00,0,28111892,197274
OK,125,45,698,125,2014-10-01T09:30:00,4,28112682,197274
OK,111,50,698,111,2014-10-01T09:35:00,5,28113131,197274
OK,93,60,698,93,2014-10-01T09:40:00,0,28113555,197274
OK,109,51,698,109,2014-10-01T09:45:00,3,28114004,197274
OK,123,46,698,123,2014-10-01T09:50:00,5,28114436,197274
OK,131,43,698,131,2014-10-01T10:00:00,0,28115239,197274
OK,131,43,698,131,2014-10-01T10:05:00,0,28115688,197274
OK,131,43,698,131,2014-10-01T10:10:00,0,28116100,197274
OK,101,56,698,101,2014-10-01T10:15:00,2,28116549,197274
OK,101,56,698,101,2014-10-01T10:20:00,2,28116957,197274
OK,113,50,698,113,2014-10-01T10:25:00,0,28117406,197274
OK,113,50,698,113,2014-10-01T10:30:00,0,28117831,197274
OK,107,52,698,107,2014-10-01T10:35:00,2,28118280,197274
OK,103,54,698,103,2014-10-01T10:40:00,4,28118725,197274
OK,98,57,698,98,2014-10-01T10:45:00,4,28119172,197274
OK,96,58,698,96,2014-10-01T10:50:00,5,28119616,197274
OK,109,51,698,109,2014-10-01T10:55:00,12,28120064,197274
OK,114,49,698,114,2014-10-01T11:00:00,10,28120512,197274
OK,101,56,698,101,2014-10-01T11:05:00,5,28120961,197274
OK,101,56,698,101,2014-10-01T11:10:00,3,28121344,197274
OK,98,57,698,98,2014-10-01T11:15:00,1,28121793,197274
OK,95,59,698,95,2014-10-01T11:20:00,3,28122231,197274
OK,95,59,698,95,2014-10-01T11:25:00,4,28122680,197274
OK,102,55,698,102,2014-10-01T11:30:00,3,28123121,197274
OK,98,57,698,98,2014-10-01T11:35:00,2,28123570,197274
OK,99,57,698,99,2014-10-01T11:40:00,7,28124002,197274
OK,96,58,698,96,2014-10-01T11:45:00,6,28124451,197274
OK,103,54,698,103,2014-10-01T11:50:00,5,28124853,197274
OK,106,53,698,106,2014-10-01T11:55:00,6,28125302,197274
OK,109,51,698,109,2014-10-01T12:00:00,3,28125731,197274
OK,96,58,698,96,2014-10-01T12:10:00,1,28126532,197274
OK,102,55,698,102,2014-10-01T12:15:00,4,28126981,197274
OK,106,53,698,106,2014-10-01T12:20:00,6,28127430,197274
OK,106,53,698,106,2014-10-01T12:25:00,6,28127879,197274
OK,104,54,698,104,2014-10-01T12:30:00,5,28128307,197274
OK,103,54,698,103,2014-10-01T12:35:00,4,28128756,197274
OK,101,56,698,101,2014-10-01T12:40:00,5,28129191,197274
OK,105,53,698,105,2014-10-01T12:45:00,6,28129640,197274
OK,107,52,698,107,2014-10-01T12:50:00,9,28130074,197274
OK,107,52,698,107,2014-10-01T12:55:00,7,28130523,197274
OK,115,49,698,115,2014-10-01T13:00:00,7,28130951,197274
OK,106,53,698,106,2014-10-01T13:05:00,9,28131400,197274
OK,97,58,698,97,2014-10-01T13:10:00,3,28131837,197274
OK,128,44,698,128,2014-10-01T13:15:00,4,28132286,197274
OK,128,44,698,128,2014-10-01T13:20:00,4,28132724,197274
OK,105,53,698,105,2014-10-01T13:25:00,1,28133171,197274
OK,106,53,698,106,2014-10-01T13:30:00,8,28133609,197274
OK,107,52,698,107,2014-10-01T13:35:00,9,28134058,197274
OK,123,46,698,123,2014-10-01T13:40:00,1,28134497,197274
OK,101,56,698,101,2014-10-01T13:45:00,1,28134946,197274
OK,110,51,698,110,2014-10-01T13:50:00,4,28135365,197274
OK,107,52,698,107,2014-10-01T13:55:00,3,28135814,197274
OK,119,47,698,119,2014-10-01T14:00:00,6,28136251,197274
OK,98,57,698,98,2014-10-01T14:05:00,0,28136700,197274
OK,94,60,698,94,2014-10-01T14:10:00,6,28137140,197274
OK,98,57,698,98,2014-10-01T14:15:00,6,28137589,197274
OK,104,54,698,104,2014-10-01T14:20:00,3,28138023,197274
OK,136,41,698,136,2014-10-01T14:25:00,3,28138472,197274
OK,111,50,698,111,2014-10-01T14:30:00,7,28138900,197274
OK,115,49,698,115,2014-10-01T14:35:00,9,28139349,197274
OK,143,39,698,143,2014-10-01T14:40:00,5,28139760,197274
OK,105,53,698,105,2014-10-01T14:45:00,2,28140209,197274
OK,103,54,698,103,2014-10-01T14:50:00,5,28140651,197274
OK,103,54,698,103,2014-10-01T14:55:00,2,28141099,197274
OK,110,51,698,110,2014-10-01T15:00:00,3,28141526,197274
OK,102,55,698,102,2014-10-01T15:05:00,3,28141975,197274
OK,87,65,698,87,2014-10-01T15:10:00,4,28142403,197274
OK,96,58,698,96,2014-10-01T15:15:00,5,28142852,197274
OK,96,58,698,96,2014-10-01T15:20:00,8,28143279,197274
OK,98,57,698,98,2014-10-01T15:25:00,6,28143728,197274
OK,99,57,698,99,2014-10-01T15:30:00,6,28144176,197274
OK,93,60,698,93,2014-10-01T15:35:00,3,28144625,197274
OK,100,56,698,100,2014-10-01T15:40:00,2,28145046,197274
OK,105,53,698,105,2014-10-01T15:45:00,2,28145460,197274
OK,104,54,698,104,2014-10-01T15:50:00,2,28145909,197274
OK,105,53,698,105,2014-10-01T15:55:00,3,28146358,197274
OK,87,65,698,87,2014-10-01T16:00:00,3,28146807,197274
OK,93,60,698,93,2014-10-01T16:05:00,3,28147215,197274
OK,93,60,698,93,2014-10-01T16:10:00,3,28147659,197274
OK,93,60,698,93,2014-10-01T16:15:00,4,28148108,197274
OK,117,48,698,117,2014-10-01T16:20:00,5,28148509,197274
OK,114,49,698,114,2014-10-01T16:25:00,6,28148958,197274
OK,96,58,698,96,2014-10-01T16:30:00,4,28149397,197274
OK,96,58,698,96,2014-10-01T16:35:00,4,28149846,197274
OK,87,65,698,87,2014-10-01T16:40:00,2,28150272,197274
OK,94,60,698,94,2014-10-01T16:45:00,4,28150721,197274
OK,98,57,698,98,2014-10-01T16:50:00,3,28151139,197274
OK,97,58,698,97,2014-10-01T16:55:00,0,28151588,197274
OK,83,68,698,83,2014-10-01T17:05:00,0,28152037,197274
OK,83,68,698,83,2014-10-01T17:10:00,0,28152486,197274
OK,83,68,698,83,2014-10-01T17:15:00,0,28152932,197274
OK,83,68,698,83,2014-10-01T17:20:00,0,28153379,197274
OK,103,54,698,103,2014-10-01T17:25:00,4,28153828,197274
OK,90,62,698,90,2014-10-01T17:30:00,4,28154238,197274
OK,92,61,698,92,2014-10-01T17:35:00,3,28154687,197274
OK,100,56,698,100,2014-10-01T17:40:00,1,28155129,197274
OK,100,56,698,100,2014-10-01T17:45:00,0,28155577,197274
OK,100,56,698,100,2014-10-01T17:50:00,0,28155995,197274
OK,100,56,698,100,2014-10-01T17:55:00,0,28156444,197274
OK,100,56,698,100,2014-10-01T18:00:00,0,28156892,197274
OK,100,56,698,100,2014-10-01T18:05:00,0,28157331,197274
OK,100,56,698,100,2014-10-01T18:10:00,0,28157761,197274
OK,100,56,698,100,2014-10-01T18:15:00,0,28158209,197274
OK,100,56,698,100,2014-10-01T18:20:00,0,28158653,197274
OK,100,56,698,100,2014-10-01T18:25:00,0,28159098,197274
OK,101,56,698,101,2014-10-01T18:35:00,0,28159880,197274
OK,101,56,698,101,2014-10-01T18:40:00,0,28160329,197274
OK,107,52,698,107,2014-10-01T18:45:00,1,28160778,197274
OK,107,52,698,107,2014-10-01T18:50:00,1,28161216,197274
OK,84,67,698,84,2014-10-01T18:55:00,1,28161665,197274
OK,115,49,698,115,2014-10-01T19:00:00,2,28162082,197274
OK,115,49,698,115,2014-10-01T19:05:00,0,28162531,197274
OK,115,49,698,115,2014-10-01T19:10:00,0,28162925,197274
OK,115,49,698,115,2014-10-01T19:15:00,0,28163364,197274
OK,90,62,698,90,2014-10-01T19:20:00,1,28163812,197274
OK,90,62,698,90,2014-10-01T19:25:00,0,28164261,197274
OK,90,62,698,90,2014-10-01T19:30:00,0,28164692,197274
OK,90,62,698,90,2014-10-01T19:35:00,0,28165141,197274
OK,90,62,698,90,2014-10-01T19:40:00,0,28165566,197274
OK,90,62,698,90,2014-10-01T19:45:00,0,28166014,197274
OK,90,62,698,90,2014-10-01T19:55:00,0,28166817,197274
OK,90,62,698,90,2014-10-01T20:00:00,0,28167266,197274
OK,106,53,698,106,2014-10-01T20:05:00,1,28167694,197274
OK,90,62,698,90,2014-10-01T20:10:00,1,28168128,197274
OK,96,58,698,96,2014-10-01T20:15:00,2,28168577,197274
OK,107,52,698,107,2014-10-01T20:20:00,1,28169022,197274
OK,99,57,698,99,2014-10-01T20:25:00,1,28169471,197274
OK,99,57,698,99,2014-10-01T20:30:00,1,28169919,197274
OK,135,41,698,135,2014-10-01T20:35:00,0,28170345,197274
OK,135,41,698,135,2014-10-01T20:40:00,0,28170790,197274
OK,135,41,698,135,2014-10-01T20:45:00,0,28171238,197274
OK,135,41,698,135,2014-10-01T20:50:00,0,28171675,197274
OK,135,41,698,135,2014-10-01T20:55:00,0,28172121,197274
OK,135,41,698,135,2014-10-01T21:00:00,0,28172569,197274
OK,135,41,698,135,2014-10-01T21:05:00,0,28173015,197274
OK,135,41,698,135,2014-10-01T21:10:00,0,28173461,197274
OK,135,41,698,135,2014-10-01T21:15:00,0,28173910,197274
OK,135,41,698,135,2014-10-01T21:20:00,0,28174351,197274
OK,135,41,698,135,2014-10-01T21:25:00,0,28174800,197274
OK,135,41,698,135,2014-10-01T21:35:00,0,28175622,197274
OK,135,41,698,135,2014-10-01T21:40:00,0,28176071,197274
OK,135,41,698,135,2014-10-01T21:45:00,0,28176520,197274
OK,135,41,698,135,2014-10-01T21:50:00,0,28176969,197274
OK,135,41,698,135,2014-10-01T21:55:00,0,28177325,197274
OK,135,41,698,135,2014-10-01T22:00:00,0,28177765,197274
OK,135,41,698,135,2014-10-01T22:05:00,0,28178211,197274
OK,135,41,698,135,2014-10-01T22:10:00,0,28178660,197274
OK,135,41,698,135,2014-10-01T22:15:00,0,28179107,197274
OK,135,41,698,135,2014-10-01T22:20:00,0,28179541,197274
OK,135,41,698,135,2014-10-01T22:25:00,0,28179984,197274
OK,105,53,698,105,2014-10-01T22:30:00,1,28180431,197274
OK,105,53,698,105,2014-10-01T22:35:00,0,28180829,197274
OK,105,53,698,105,2014-10-01T22:40:00,0,28181278,197274
OK,105,53,698,105,2014-10-01T22:45:00,0,28181702,197274
OK,105,53,698,105,2014-10-01T22:50:00,0,28182150,197274
OK,105,53,698,105,2014-10-01T22:55:00,0,28182597,197274
OK,105,53,698,105,2014-10-01T23:00:00,0,28183046,197274
OK,105,53,698,105,2014-10-01T23:10:00,0,28183896,197274
OK,115,49,698,115,2014-10-01T23:15:00,0,28184341,197274
OK,115,49,698,115,2014-10-01T23:20:00,0,28184790,197274
OK,115,49,698,115,2014-10-01T23:25:00,0,28185225,197274
OK,115,49,698,115,2014-10-01T23:30:00,0,28186057,197274
OK,115,49,698,115,2014-10-01T23:40:00,0,28186496,197274
OK,115,49,698,115,2014-10-01T23:45:00,0,28187336,197274
OK,115,49,698,115,2014-10-01T23:50:00,0,28187785,197274
OK,115,49,698,115,2014-10-02T00:00:00,0,28188229,197274
OK,115,49,698,115,2014-10-02T00:10:00,0,28189111,197274
OK,115,49,698,115,2014-10-02T00:15:00,0,28189560,197274
OK,115,49,698,115,2014-10-02T00:20:00,0,28189982,197274
OK,115,49,698,115,2014-10-02T00:25:00,0,28190426,197274
OK,115,49,698,115,2014-10-02T00:30:00,0,28190784,197274
OK,115,49,698,115,2014-10-02T00:35:00,0,28191233,197274
OK,115,49,698,115,2014-10-02T00:45:00,0,28191988,197274
OK,115,49,698,115,2014-10-02T00:50:00,0,28192437,197274
OK,115,49,698,115,2014-10-02T00:55:00,0,28192870,197274
OK,115,49,698,115,2014-10-02T01:00:00,0,28193289,197274
OK,115,49,698,115,2014-10-02T01:05:00,0,28193681,197274
OK,115,49,698,115,2014-10-02T01:10:00,0,28194130,197274
OK,115,49,698,115,2014-10-02T01:15:00,0,28194579,197274
OK,115,49,698,115,2014-10-02T01:25:00,0,28195264,197274
OK,115,49,698,115,2014-10-02T01:30:00,0,28195713,197274
OK,115,49,698,115,2014-10-02T01:35:00,0,28196162,197274
OK,115,49,698,115,2014-10-02T01:40:00,0,28196446,197274
OK,115,49,698,115,2014-10-02T01:45:00,0,28196895,197274
OK,115,49,698,115,2014-10-02T01:50:00,0,28197318,197274
OK,115,49,698,115,2014-10-02T01:55:00,0,28197767,197274
OK,115,49,698,115,2014-10-02T02:00:00,0,28198215,197274
OK,115,49,698,115,2014-10-02T02:05:00,0,28198663,197274
OK,115,49,698,115,2014-10-02T02:10:00,0,28199112,197274
OK,115,49,698,115,2014-10-02T02:15:00,0,28199484,197274
OK,115,49,698,115,2014-10-02T02:20:00,0,28199926,197274
OK,115,49,698,115,2014-10-02T02:25:00,0,28200368,197274
OK,115,49,698,115,2014-10-02T02:30:00,0,28200811,197274
OK,115,49,698,115,2014-10-02T02:35:00,0,28201260,197274
OK,115,49,698,115,2014-10-02T02:45:00,0,28201691,197274
OK,115,49,698,115,2014-10-02T02:50:00,0,28202140,197274
OK,115,49,698,115,2014-10-02T02:55:00,0,28202589,197274
OK,115,49,698,115,2014-10-02T03:00:00,0,28203031,197274
OK,115,49,698,115,2014-10-02T03:05:00,0,28203479,197274
OK,115,49,698,115,2014-10-02T03:15:00,0,28203914,197274
OK,115,49,698,115,2014-10-02T03:30:00,0,28204363,197274
OK,108,52,698,108,2014-10-02T03:35:00,1,28204812,197274
OK,108,52,698,108,2014-10-02T03:40:00,0,28205261,197274
OK,108,52,698,108,2014-10-02T03:45:00,0,28205689,197274
OK,108,52,698,108,2014-10-02T03:50:00,0,28206116,197274
OK,108,52,698,108,2014-10-02T03:55:00,0,28206519,197274
OK,108,52,698,108,2014-10-02T04:00:00,0,28206968,197274
OK,108,52,698,108,2014-10-02T04:05:00,0,28207417,197274
OK,108,52,698,108,2014-10-02T04:10:00,0,28207836,197274
OK,108,52,698,108,2014-10-02T04:15:00,0,28208285,197274
OK,88,64,698,88,2014-10-02T04:20:00,1,28208712,197274
OK,88,64,698,88,2014-10-02T04:25:00,0,28209161,197274
OK,92,61,698,92,2014-10-02T04:30:00,7,28209599,197274
OK,87,65,698,87,2014-10-02T04:35:00,4,28210048,197274
OK,103,54,698,103,2014-10-02T04:40:00,6,28210471,197274
OK,108,52,698,108,2014-10-02T04:45:00,1,28210920,197274
OK,108,52,698,108,2014-10-02T04:50:00,0,28211345,197274
OK,105,53,698,105,2014-10-02T04:55:00,8,28211785,197274
OK,113,50,698,113,2014-10-02T05:00:00,1,28212167,197274
OK,125,45,698,125,2014-10-02T05:05:00,5,28212616,197274
OK,132,42,698,132,2014-10-02T05:10:00,1,28213045,197274
OK,103,54,698,103,2014-10-02T05:15:00,10,28213494,197274
OK,102,55,698,102,2014-10-02T05:20:00,1,28213932,197274
OK,122,46,698,122,2014-10-02T05:25:00,8,28214381,197274
OK,118,47,698,118,2014-10-02T05:30:00,1,28214794,197274
OK,118,47,698,118,2014-10-02T05:35:00,0,28215243,197274
OK,201,28,698,201,2014-10-02T05:40:00,11,28215659,197274
OK,224,25,698,224,2014-10-02T05:45:00,5,28216108,197274
OK,223,25,698,223,2014-10-02T05:50:00,0,28216447,197274
OK,225,25,698,225,2014-10-02T05:55:00,13,28216887,197274
OK,226,25,698,226,2014-10-02T06:00:00,17,28217334,197274
OK,224,25,698,224,2014-10-02T06:05:00,10,28217783,197274
OK,223,25,698,223,2014-10-02T06:10:00,1,28218222,197274
OK,211,26,698,211,2014-10-02T06:15:00,7,28218671,197274
OK,166,34,698,166,2014-10-02T06:20:00,11,28219091,197274
OK,130,43,698,130,2014-10-02T06:25:00,14,28219539,197274
OK,129,43,698,129,2014-10-02T06:30:00,10,28219913,197274
OK,125,45,698,125,2014-10-02T06:35:00,15,28220362,197274
OK,113,50,698,113,2014-10-02T06:40:00,10,28220796,197274
OK,114,49,698,114,2014-10-02T06:45:00,5,28221245,197274
OK,108,52,698,108,2014-10-02T07:00:00,8,28221912,197274
OK,116,48,698,116,2014-10-02T07:05:00,8,28222057,197274
OK,115,49,698,115,2014-10-02T07:10:00,7,28222506,197274
OK,89,63,698,89,2014-10-02T07:15:00,2,28222955,197274
OK,77,73,698,77,2014-10-02T07:20:00,0,28223386,197274
OK,112,50,698,112,2014-10-02T07:25:00,2,28223821,197274
OK,109,51,698,109,2014-10-02T07:35:00,2,28224624,197274
OK,114,49,698,114,2014-10-02T07:40:00,1,28225073,197274
OK,114,49,698,114,2014-10-02T07:45:00,0,28225483,197274
OK,100,56,698,100,2014-10-02T07:50:00,4,28225844,197274
OK,106,53,698,106,2014-10-02T07:55:00,7,28226293,197274
OK,123,46,698,123,2014-10-02T08:00:00,3,28226734,197274
OK,121,46,698,121,2014-10-02T08:05:00,6,28227183,197274
OK,114,49,698,114,2014-10-02T08:10:00,2,28227598,197274
OK,96,58,698,96,2014-10-02T08:15:00,5,28228045,197274
OK,96,58,698,96,2014-10-02T08:20:00,1,28228406,197274
OK,123,46,698,123,2014-10-02T08:25:00,2,28228855,197274
OK,121,46,698,121,2014-10-02T08:30:00,0,28229265,197274
OK,84,67,698,84,2014-10-02T08:35:00,1,28229712,197274
OK,84,67,698,84,2014-10-02T08:40:00,1,28230064,197274
OK,84,67,698,84,2014-10-02T08:45:00,0,28230513,197274
OK,105,53,698,105,2014-10-02T08:50:00,5,28230879,197274
OK,109,51,698,109,2014-10-02T08:55:00,4,28231326,197274
OK,102,55,698,102,2014-10-02T09:00:00,6,28231751,197274
OK,93,60,698,93,2014-10-02T09:15:00,0,28232542,197274
OK,93,60,698,93,2014-10-02T09:20:00,0,28232991,197274
OK,142,39,698,142,2014-10-02T09:25:00,2,28233440,197274
OK,142,39,698,142,2014-10-02T09:30:00,2,28233864,197274
OK,108,52,698,108,2014-10-02T09:40:00,0,28234646,197274
OK,92,61,698,92,2014-10-02T09:45:00,3,28235095,197274
OK,92,61,698,92,2014-10-02T09:50:00,1,28235522,197274
OK,101,56,698,101,2014-10-02T09:55:00,0,28235971,197274
OK,101,56,698,101,2014-10-02T10:00:00,0,28236414,197274
OK,101,56,698,101,2014-10-02T10:05:00,0,28236861,197274
OK,100,56,698,100,2014-10-02T10:10:00,4,28237263,197274
OK,99,57,698,99,2014-10-02T10:15:00,4,28237711,197274
OK,80,70,698,80,2014-10-02T10:20:00,2,28238160,197274
OK,84,67,698,84,2014-10-02T10:25:00,0,28238607,197274
OK,84,67,698,84,2014-10-02T10:30:00,0,28239048,197274
OK,121,46,698,121,2014-10-02T10:35:00,2,28239497,197274
OK,119,47,698,119,2014-10-02T10:40:00,3,28239927,197274
OK,96,58,698,96,2014-10-02T10:45:00,1,28240376,197274
OK,96,58,698,96,2014-10-02T10:50:00,0,28240820,197274
OK,104,54,698,104,2014-10-02T10:55:00,3,28241269,197274
OK,115,49,698,115,2014-10-02T11:00:00,0,28241701,197274
OK,115,49,698,115,2014-10-02T11:05:00,0,28242149,197274
OK,101,56,698,101,2014-10-02T11:10:00,1,28242545,197274
OK,96,58,698,96,2014-10-02T11:15:00,2,28242994,197274
OK,108,52,698,108,2014-10-02T11:20:00,2,28243443,197274
OK,119,47,698,119,2014-10-02T11:25:00,1,28243768,197274
OK,119,47,698,119,2014-10-02T11:30:00,0,28244206,197274
OK,111,50,698,111,2014-10-02T11:35:00,4,28244635,197274
OK,118,47,698,118,2014-10-02T11:40:00,2,28245084,197274
OK,118,47,698,118,2014-10-02T11:45:00,0,28245533,197274
OK,121,46,698,121,2014-10-02T11:50:00,3,28245939,197274
OK,119,47,698,119,2014-10-02T11:55:00,4,28246388,197274
OK,96,58,698,96,2014-10-02T12:00:00,3,28246825,197274
OK,95,59,698,95,2014-10-02T12:05:00,2,28247273,197274
OK,95,59,698,95,2014-10-02T12:10:00,0,28247720,197274
OK,117,48,698,117,2014-10-02T12:15:00,2,28248150,197274
OK,129,43,698,129,2014-10-02T12:20:00,1,28248599,197274
OK,116,48,698,116,2014-10-02T12:25:00,3,28249046,197274
OK,116,48,698,116,2014-10-02T12:30:00,2,28249474,197274
OK,103,54,698,103,2014-10-02T12:35:00,2,28249918,197274
OK,97,58,698,97,2014-10-02T12:40:00,1,28250302,197274
OK,103,54,698,103,2014-10-02T12:45:00,8,28250734,197274
OK,100,56,698,100,2014-10-02T13:20:00,6,28251595,197274
OK,112,50,698,112,2014-10-02T13:30:00,2,28252060,197274
OK,112,50,698,112,2014-10-02T13:35:00,2,28252197,197274
OK,124,45,698,124,2014-10-02T13:40:00,0,28252644,197274
OK,106,53,698,106,2014-10-02T13:45:00,11,28253086,197274
OK,100,56,698,100,2014-10-02T13:50:00,6,28253503,197274
OK,83,68,698,83,2014-10-02T13:55:00,1,28253952,197274
OK,111,50,698,111,2014-10-02T14:10:00,7,28254683,197274
OK,111,50,698,111,2014-10-02T14:15:00,8,28254806,197274
OK,118,47,698,118,2014-10-02T14:20:00,4,28255255,197274
OK,115,49,698,115,2014-10-02T14:25:00,3,28255704,197274
OK,112,50,698,112,2014-10-02T14:30:00,5,28256132,197274
OK,108,52,698,108,2014-10-02T14:35:00,4,28256581,197274
OK,97,58,698,97,2014-10-02T14:40:00,4,28257009,197274
OK,130,43,698,130,2014-10-02T14:45:00,5,28257458,197274
OK,117,48,698,117,2014-10-02T14:50:00,8,28257899,197274
OK,94,60,698,94,2014-10-02T14:55:00,2,28258347,197274
OK,105,53,698,105,2014-10-02T15:00:00,6,28258780,197274
OK,115,49,698,115,2014-10-02T15:05:00,3,28259226,197274
OK,108,52,698,108,2014-10-02T15:10:00,5,28259674,197274
OK,108,52,698,108,2014-10-02T15:15:00,7,28260122,197274
OK,108,52,698,108,2014-10-02T15:20:00,4,28260555,197274
OK,158,35,698,158,2014-10-02T15:25:00,1,28261002,197274
OK,122,46,698,122,2014-10-02T15:35:00,0,28261807,197274
OK,122,46,698,122,2014-10-02T15:40:00,0,28262256,197274
OK,100,56,698,100,2014-10-02T15:45:00,2,28262703,197274